AVA650 MROC-MGGT

Flight info

Callsign AVA650
Flight time 1h 15m
Altitude 38000
Route NANJO4U ULAPO DCT TUKOR DCT KAPAN KAPAN2C
Aircraft A20N/M-SDE2E3FGHIRWXY/LB1

Departure

Time 2026-04-24 20:15
Airport Juan Santamaría International Airport (MROC)

Arrival

Time 2026-04-24 21:30
Airport La Aurora International Airport (MGGT)
Time Latitude Longitude Altitude Speed Heading
2026-04-24 19:36 9.99735 -84.20386 3025 ft 0 kts 338°
2026-04-24 20:08 9.99712 -84.20377 3025 ft 4 kts 347°
2026-04-24 20:08 9.99685 -84.20374 3025 ft 4 kts
2026-04-24 20:08 9.99673 -84.20375 3026 ft 0 kts
2026-04-24 20:10 9.99678 -84.20370 3027 ft 2 kts 41°
2026-04-24 20:10 9.99698 -84.20323 3030 ft 11 kts 69°
2026-04-24 20:11 9.99728 -84.20245 3032 ft 13 kts 69°
2026-04-24 20:11 9.99759 -84.20159 3034 ft 13 kts 69°
2026-04-24 20:11 9.99790 -84.20075 3037 ft 10 kts 70°
2026-04-24 20:11 9.99783 -84.20013 3039 ft 9 kts 134°
2026-04-24 20:12 9.99715 -84.19981 3038 ft 12 kts 160°
2026-04-24 20:12 9.99635 -84.19951 3038 ft 12 kts 160°
2026-04-24 20:12 9.99585 -84.19905 3039 ft 10 kts 97°
2026-04-24 20:12 9.99605 -84.19840 3042 ft 10 kts 69°
2026-04-24 20:13 9.99631 -84.19771 3044 ft 11 kts 70°
2026-04-24 20:13 9.99657 -84.19699 3047 ft 11 kts 69°
2026-04-24 20:13 9.99685 -84.19625 3050 ft 11 kts 69°
2026-04-24 20:13 9.99739 -84.19581 3053 ft 10 kts 352°
2026-04-24 20:14 9.99816 -84.19614 3050 ft 15 kts 340°
2026-04-24 20:14 9.99851 -84.19660 3051 ft 0 kts 244°
2026-04-24 20:14 9.99836 -84.19703 3048 ft 27 kts 250°
2026-04-24 20:14 9.99686 -84.20103 3034 ft 92 kts 249°
2026-04-24 20:15 9.99396 -84.20874 3007 ft 140 kts 249°
2026-04-24 20:15 9.99053 -84.21818 3525 ft 138 kts 251°
2026-04-24 20:15 9.98725 -84.22766 3982 ft 147 kts 249°
2026-04-24 20:15 9.98331 -84.23728 4522 ft 147 kts 246°
2026-04-24 20:16 9.98004 -84.24726 5130 ft 157 kts 268°
2026-04-24 20:16 9.98381 -84.25816 5602 ft 179 kts 310°
2026-04-24 20:16 9.99359 -84.26706 6033 ft 200 kts 321°
2026-04-24 20:16 10.00566 -84.27586 6404 ft 229 kts 323°
2026-04-24 20:17 10.01926 -84.28566 6976 ft 251 kts 322°
2026-04-24 20:17 10.04969 -84.30890 8504 ft 286 kts 321°
2026-04-24 20:17 10.06550 -84.32136 9568 ft 290 kts 321°
2026-04-24 20:18 10.07606 -84.32975 10135 ft 293 kts 321°
2026-04-24 20:18 10.09854 -84.34767 10667 ft 322 kts 321°
2026-04-24 20:18 10.11676 -84.36219 10999 ft 342 kts 321°
2026-04-24 20:18 10.13567 -84.37723 11705 ft 347 kts 321°
2026-04-24 20:19 10.15462 -84.39230 12413 ft 351 kts 321°
2026-04-24 20:19 10.17408 -84.40778 12742 ft 353 kts 321°
2026-04-24 20:19 10.19320 -84.42300 12858 ft 354 kts 321°
2026-04-24 20:19 10.21254 -84.43840 12872 ft 353 kts 321°
2026-04-24 20:20 10.23189 -84.45381 12865 ft 353 kts 321°
2026-04-24 20:20 10.25125 -84.46924 12855 ft 353 kts 321°
2026-04-24 20:20 10.27056 -84.48463 12850 ft 354 kts 321°
2026-04-24 20:20 10.28991 -84.50005 12847 ft 354 kts 321°
2026-04-24 20:21 10.30926 -84.51547 12841 ft 353 kts 321°
2026-04-24 20:21 10.32858 -84.53087 12849 ft 354 kts 321°
2026-04-24 20:21 10.34793 -84.54628 12836 ft 354 kts 321°
2026-04-24 20:21 10.36742 -84.56182 13081 ft 358 kts 321°
2026-04-24 20:22 10.38703 -84.57744 13920 ft 358 kts 321°
2026-04-24 20:22 10.39999 -84.58777 14440 ft 359 kts 321°
2026-04-24 20:22 10.41977 -84.60353 15152 ft 363 kts 321°
2026-04-24 20:22 10.43973 -84.61945 15806 ft 367 kts 321°
2026-04-24 20:23 10.45991 -84.63554 16490 ft 370 kts 321°
2026-04-24 20:23 10.48027 -84.65178 17116 ft 374 kts 321°
2026-04-24 20:23 10.50084 -84.66818 17743 ft 377 kts 321°
2026-04-24 20:23 10.52834 -84.69011 18514 ft 382 kts 321°
2026-04-24 20:24 10.54249 -84.70140 18890 ft 383 kts 321°
2026-04-24 20:24 10.56352 -84.71818 19439 ft 386 kts 321°
2026-04-24 20:24 10.58478 -84.73513 19986 ft 389 kts 321°
2026-04-24 20:24 10.60615 -84.75219 20527 ft 392 kts 321°
2026-04-24 20:25 10.62770 -84.76939 21059 ft 396 kts 322°
2026-04-24 20:25 10.64913 -84.78650 21575 ft 399 kts 322°
2026-04-24 20:25 10.67099 -84.80397 22109 ft 402 kts 321°
2026-04-24 20:25 10.69188 -84.82304 22623 ft 405 kts 316°
2026-04-24 20:26 10.71215 -84.84305 23153 ft 408 kts 316°
2026-04-24 20:26 10.73264 -84.86317 23608 ft 411 kts 316°
2026-04-24 20:26 10.75328 -84.88339 24057 ft 413 kts 316°
2026-04-24 20:26 10.77405 -84.90373 24509 ft 415 kts 316°
2026-04-24 20:27 10.79488 -84.92414 24958 ft 417 kts 316°
2026-04-24 20:27 10.81577 -84.94463 25380 ft 419 kts 315°
2026-04-24 20:27 10.83686 -84.96531 25791 ft 422 kts 315°
2026-04-24 20:27 10.85802 -84.98606 26207 ft 424 kts 315°
2026-04-24 20:28 10.87925 -85.00689 26616 ft 426 kts 315°
2026-04-24 20:28 10.90062 -85.02787 26992 ft 428 kts 315°
2026-04-24 20:28 10.92213 -85.04897 27383 ft 430 kts 315°
2026-04-24 20:28 10.94376 -85.07020 27758 ft 433 kts 315°
2026-04-24 20:29 10.95812 -85.08430 28002 ft 434 kts 315°
2026-04-24 20:29 10.98727 -85.11292 28492 ft 437 kts 315°
2026-04-24 20:29 11.00919 -85.13445 28872 ft 439 kts 314°
2026-04-24 20:29 11.03119 -85.15606 29208 ft 441 kts 314°
2026-04-24 20:30 11.05205 -85.17898 29532 ft 442 kts 308°
2026-04-24 20:30 11.07026 -85.20371 29882 ft 443 kts 304°
2026-04-24 20:30 11.08806 -85.22936 30187 ft 445 kts 304°
2026-04-24 20:30 11.10608 -85.25512 30462 ft 448 kts 304°
2026-04-24 20:31 11.12417 -85.28093 30778 ft 450 kts 304°
2026-04-24 20:31 11.14237 -85.30690 31099 ft 451 kts 304°
2026-04-24 20:31 11.16060 -85.33292 31488 ft 451 kts 304°
2026-04-24 20:31 11.17877 -85.35887 31902 ft 449 kts 304°
2026-04-24 20:32 11.19691 -85.38479 32297 ft 449 kts 304°
2026-04-24 20:32 11.21499 -85.41065 32693 ft 448 kts 304°
2026-04-24 20:32 11.23305 -85.43649 33080 ft 447 kts 303°
2026-04-24 20:32 11.25103 -85.46222 33448 ft 446 kts 303°
2026-04-24 20:33 11.26904 -85.48800 33821 ft 445 kts 303°
2026-04-24 20:33 11.28697 -85.51367 34157 ft 444 kts 303°
2026-04-24 20:33 11.30485 -85.53928 34471 ft 443 kts 303°
2026-04-24 20:33 11.32274 -85.56490 34785 ft 443 kts 303°
2026-04-24 20:34 11.34054 -85.59041 35090 ft 442 kts 303°
2026-04-24 20:34 11.35831 -85.61588 35396 ft 441 kts 303°
2026-04-24 20:34 11.37606 -85.64132 35710 ft 440 kts 303°
2026-04-24 20:34 11.39349 -85.66631 36019 ft 438 kts 303°
2026-04-24 20:35 11.41115 -85.69164 36322 ft 438 kts 303°
2026-04-24 20:35 11.42896 -85.71720 36615 ft 437 kts 303°
2026-04-24 20:35 11.44631 -85.74208 36908 ft 436 kts 303°
2026-04-24 20:35 11.46382 -85.76722 37189 ft 435 kts 303°
2026-04-24 20:36 11.48129 -85.79231 37461 ft 434 kts 303°
2026-04-24 20:36 11.49867 -85.81726 37717 ft 433 kts 303°
2026-04-24 20:36 11.53350 -85.86729 37810 ft 430 kts 303°
2026-04-24 20:37 11.56808 -85.91700 37814 ft 429 kts 303°
2026-04-24 20:37 11.60263 -85.96667 37808 ft 429 kts 303°
2026-04-24 20:38 11.63710 -86.01627 37806 ft 428 kts 303°
2026-04-24 20:38 11.67156 -86.06587 37812 ft 428 kts 303°
2026-04-24 20:39 11.70591 -86.11533 37816 ft 427 kts 303°
2026-04-24 20:39 11.74003 -86.16450 37813 ft 427 kts 303°
2026-04-24 20:40 11.77455 -86.21425 37819 ft 427 kts 303°
2026-04-24 20:40 11.80859 -86.26334 37804 ft 427 kts 303°
2026-04-24 20:41 11.84282 -86.31274 37813 ft 426 kts 303°
2026-04-24 20:41 11.87705 -86.36215 37810 ft 426 kts 303°
2026-04-24 20:42 11.91121 -86.41151 37809 ft 426 kts 303°
2026-04-24 20:42 11.94536 -86.46085 37803 ft 425 kts 303°
2026-04-24 20:43 11.97947 -86.51018 37804 ft 425 kts 303°
2026-04-24 20:43 12.01358 -86.55952 37809 ft 425 kts 303°
2026-04-24 20:44 12.04764 -86.60882 37806 ft 425 kts 303°
2026-04-24 20:44 12.08166 -86.65808 37809 ft 424 kts 303°
2026-04-24 20:45 12.11567 -86.70736 37808 ft 424 kts 303°
2026-04-24 20:45 12.14971 -86.75669 37803 ft 425 kts 303°
2026-04-24 20:46 12.18350 -86.80569 37808 ft 425 kts 303°
2026-04-24 20:46 12.21751 -86.85505 37814 ft 424 kts 303°
2026-04-24 20:47 12.25173 -86.90471 37901 ft 425 kts 303°
2026-04-24 20:47 12.28548 -86.95375 37886 ft 425 kts 303°
2026-04-24 20:48 12.31940 -87.00303 37889 ft 424 kts 303°
2026-04-24 20:48 12.35339 -87.05246 37886 ft 424 kts 303°
2026-04-24 20:49 12.38735 -87.10187 37886 ft 425 kts 303°
2026-04-24 20:49 12.42135 -87.15135 37886 ft 425 kts 303°
2026-04-24 20:50 12.45530 -87.20079 37888 ft 425 kts 303°
2026-04-24 20:50 12.48934 -87.25038 37894 ft 426 kts 303°
2026-04-24 20:51 12.52317 -87.29971 37894 ft 426 kts 303°
2026-04-24 20:51 12.55719 -87.34932 37889 ft 426 kts 303°
2026-04-24 20:52 12.59121 -87.39897 37892 ft 426 kts 303°
2026-04-24 20:52 12.62523 -87.44865 37897 ft 426 kts 303°
2026-04-24 20:53 12.65922 -87.49830 37890 ft 426 kts 303°
2026-04-24 20:53 12.69323 -87.54801 37888 ft 426 kts 303°
2026-04-24 20:54 12.72719 -87.59768 37886 ft 426 kts 303°
2026-04-24 20:54 12.76116 -87.64739 37885 ft 426 kts 303°
2026-04-24 20:55 12.79510 -87.69708 37887 ft 426 kts 303°
2026-04-24 20:55 12.82902 -87.74676 37890 ft 426 kts 303°
2026-04-24 20:56 12.86294 -87.79646 37882 ft 426 kts 303°
2026-04-24 20:56 12.89471 -87.84755 37880 ft 425 kts 299°
2026-04-24 20:57 12.92468 -87.89935 37882 ft 425 kts 300°
2026-04-24 20:57 12.95491 -87.95140 37878 ft 425 kts 300°
2026-04-24 20:58 12.98513 -88.00353 37878 ft 425 kts 300°
2026-04-24 20:58 13.01535 -88.05574 37872 ft 426 kts 300°
2026-04-24 20:59 13.04558 -88.10799 37865 ft 426 kts 300°
2026-04-24 20:59 13.07584 -88.16032 37858 ft 427 kts 300°
2026-04-24 21:00 13.10609 -88.21266 37855 ft 427 kts 300°
2026-04-24 21:00 13.13638 -88.26511 37850 ft 427 kts 300°
2026-04-24 21:01 13.16669 -88.31763 37845 ft 428 kts 300°
2026-04-24 21:01 13.19707 -88.37029 37837 ft 429 kts 300°
2026-04-24 21:02 13.22745 -88.42300 37840 ft 429 kts 300°
2026-04-24 21:02 13.25763 -88.47539 37837 ft 429 kts 300°
2026-04-24 21:03 13.28801 -88.52816 37839 ft 429 kts 300°
2026-04-24 21:03 13.31840 -88.58097 37841 ft 430 kts 300°
2026-04-24 21:04 13.34899 -88.63417 37846 ft 430 kts 300°
2026-04-24 21:04 13.37940 -88.68707 37849 ft 430 kts 300°
2026-04-24 21:05 13.40963 -88.73970 37860 ft 430 kts 300°
2026-04-24 21:05 13.44004 -88.79267 37866 ft 431 kts 300°
2026-04-24 21:06 13.47046 -88.84570 37865 ft 431 kts 300°
2026-04-24 21:06 13.50086 -88.89874 37863 ft 431 kts 300°
2026-04-24 21:07 13.53129 -88.95184 37864 ft 431 kts 300°
2026-04-24 21:07 13.56172 -89.00498 37863 ft 432 kts 300°
2026-04-24 21:08 13.59210 -89.05808 37988 ft 432 kts 300°
2026-04-24 21:08 13.62265 -89.11151 37986 ft 433 kts 300°
2026-04-24 21:09 13.65316 -89.16490 37987 ft 433 kts 300°
2026-04-24 21:09 13.68369 -89.21834 37987 ft 433 kts 300°
2026-04-24 21:10 13.71423 -89.27184 37980 ft 434 kts 300°
2026-04-24 21:10 13.74471 -89.32528 37979 ft 434 kts 300°
2026-04-24 21:11 13.75996 -89.35203 37878 ft 433 kts 300°
2026-04-24 21:11 13.77519 -89.37876 37621 ft 433 kts 300°
2026-04-24 21:11 13.79043 -89.40551 37362 ft 434 kts 300°
2026-04-24 21:11 13.80572 -89.43234 37116 ft 435 kts 301°
2026-04-24 21:12 13.82101 -89.45921 36863 ft 436 kts 301°
2026-04-24 21:12 13.83119 -89.47708 36708 ft 437 kts 301°
2026-04-24 21:12 13.85159 -89.51292 35944 ft 441 kts 301°
2026-04-24 21:12 13.86722 -89.54042 35050 ft 448 kts 301°
2026-04-24 21:13 13.88299 -89.56818 34288 ft 450 kts 301°
2026-04-24 21:13 13.89887 -89.59612 33494 ft 453 kts 301°
2026-04-24 21:13 13.91478 -89.62412 32676 ft 454 kts 301°
2026-04-24 21:13 13.93075 -89.65222 31840 ft 456 kts 301°
2026-04-24 21:14 13.94681 -89.68048 30959 ft 459 kts 301°
2026-04-24 21:14 13.96291 -89.70886 30145 ft 459 kts 301°
2026-04-24 21:14 13.97894 -89.73712 29511 ft 454 kts 301°
2026-04-24 21:14 13.99467 -89.76489 28983 ft 446 kts 301°
2026-04-24 21:15 14.01021 -89.79231 28387 ft 441 kts 301°
2026-04-24 21:15 14.02559 -89.81944 27794 ft 436 kts 302°
2026-04-24 21:15 14.04079 -89.84625 27204 ft 431 kts 302°
2026-04-24 21:15 14.05585 -89.87281 26595 ft 428 kts 302°
2026-04-24 21:16 14.07133 -89.89876 26012 ft 424 kts 304°
2026-04-24 21:16 14.08183 -89.91572 25623 ft 422 kts 304°
2026-04-24 21:16 14.09761 -89.94100 25019 ft 419 kts 304°
2026-04-24 21:16 14.11327 -89.96615 24444 ft 416 kts 304°
2026-04-24 21:17 14.13377 -89.99928 23704 ft 412 kts 304°
2026-04-24 21:17 14.14411 -90.01609 23203 ft 411 kts 304°
2026-04-24 21:17 14.16416 -90.04873 22479 ft 404 kts 304°
2026-04-24 21:17 14.17425 -90.06517 22101 ft 401 kts 304°
2026-04-24 21:18 14.19388 -90.09716 21139 ft 401 kts 304°
2026-04-24 21:18 14.20406 -90.11373 20409 ft 406 kts 304°
2026-04-24 21:18 14.21919 -90.13869 19483 ft 412 kts 302°
2026-04-24 21:18 14.23329 -90.16353 18975 ft 407 kts 301°
2026-04-24 21:19 14.24747 -90.18909 18429 ft 401 kts 300°
2026-04-24 21:19 14.26133 -90.21406 17746 ft 398 kts 300°
2026-04-24 21:19 14.27502 -90.23860 17210 ft 392 kts 301°
2026-04-24 21:19 14.28852 -90.26272 16648 ft 386 kts 301°
2026-04-24 21:20 14.31514 -90.31004 15535 ft 377 kts 302°
2026-04-24 21:20 14.33005 -90.33196 15021 ft 371 kts 311°
2026-04-24 21:20 14.34799 -90.35081 14480 ft 366 kts 320°
2026-04-24 21:21 14.36808 -90.36604 13953 ft 361 kts 329°
2026-04-24 21:21 14.39027 -90.37781 13392 ft 357 kts 338°
2026-04-24 21:21 14.41364 -90.38575 12884 ft 351 kts 346°
2026-04-24 21:21 14.43757 -90.38984 12375 ft 347 kts 355°
2026-04-24 21:22 14.46157 -90.39011 11864 ft 343 kts
2026-04-24 21:22 14.48527 -90.38814 11360 ft 340 kts
2026-04-24 21:22 14.50875 -90.38617 10869 ft 338 kts
2026-04-24 21:22 14.53195 -90.38433 10629 ft 328 kts
2026-04-24 21:23 14.55425 -90.38265 10499 ft 315 kts
2026-04-24 21:23 14.57572 -90.38108 10363 ft 303 kts
2026-04-24 21:23 14.59650 -90.37958 10147 ft 294 kts
2026-04-24 21:23 14.61650 -90.37815 10048 ft 282 kts
2026-04-24 21:24 14.63567 -90.37677 9952 ft 270 kts
2026-04-24 21:24 14.65431 -90.37544 9846 ft 259 kts
2026-04-24 21:24 14.67202 -90.37418 9650 ft 252 kts
2026-04-24 21:24 14.68870 -90.37484 9401 ft 247 kts 348°
2026-04-24 21:25 14.70475 -90.38066 9084 ft 244 kts 331°
2026-04-24 21:25 14.71844 -90.39109 8755 ft 241 kts 314°
2026-04-24 21:25 14.72830 -90.40458 8503 ft 236 kts 297°
2026-04-24 21:25 14.73400 -90.41991 8445 ft 221 kts 282°
2026-04-24 21:26 14.73564 -90.43500 8279 ft 207 kts 268°
2026-04-24 21:26 14.73370 -90.44939 8115 ft 201 kts 253°
2026-04-24 21:26 14.72845 -90.46311 8033 ft 207 kts 240°
2026-04-24 21:26 14.72025 -90.47525 7850 ft 206 kts 226°
2026-04-24 21:27 14.70971 -90.48471 7553 ft 194 kts 212°
2026-04-24 21:27 14.69798 -90.49087 7277 ft 180 kts 199°
2026-04-24 21:27 14.68632 -90.49461 7003 ft 173 kts 196°
2026-04-24 21:27 14.67504 -90.49795 6731 ft 165 kts 196°
2026-04-24 21:28 14.66416 -90.50128 6471 ft 161 kts 198°
2026-04-24 21:28 14.65368 -90.50460 6219 ft 154 kts 198°
2026-04-24 21:28 14.64370 -90.50786 5964 ft 147 kts 198°
2026-04-24 21:28 14.63433 -90.51109 5751 ft 136 kts 198°
2026-04-24 21:29 14.62562 -90.51412 5625 ft 135 kts 198°
2026-04-24 21:29 14.61640 -90.51709 5519 ft 142 kts 195°
2026-04-24 21:29 14.60692 -90.52017 5346 ft 141 kts 195°
2026-04-24 21:29 14.59750 -90.52296 5050 ft 142 kts 195°
2026-04-24 21:30 14.58842 -90.52587 4934 ft 121 kts 196°
2026-04-24 21:30 14.58232 -90.52778 4921 ft 62 kts 197°
2026-04-24 21:30 14.58028 -90.52849 4917 ft 7 kts 217°
2026-04-24 21:30 14.58021 -90.52900 4917 ft 8 kts 285°
2026-04-24 21:31 14.58063 -90.52905 4918 ft 9 kts 14°
2026-04-24 21:31 14.58147 -90.52878 4923 ft 15 kts 16°
2026-04-24 21:31 14.58253 -90.52844 4921 ft 17 kts 19°
2026-04-24 21:31 14.58369 -90.52806 4924 ft 18 kts 18°
2026-04-24 21:32 14.58498 -90.52764 4928 ft 20 kts 18°
2026-04-24 21:32 14.58635 -90.52721 4929 ft 20 kts 16°
2026-04-24 21:32 14.58744 -90.52686 4932 ft 13 kts 15°
2026-04-24 21:32 14.58792 -90.52728 4933 ft 10 kts 295°
2026-04-24 21:33 14.58850 -90.52777 4934 ft 10 kts 334°
2026-04-24 21:33 14.58872 -90.52786 4934 ft 0 kts 341°
2026-04-24 21:33 14.58878 -90.52786 4934 ft 6 kts 355°
2026-04-24 21:33 14.58937 -90.52770 4936 ft 10 kts 18°
2026-04-24 21:34 14.59004 -90.52749 4937 ft 9 kts 15°
2026-04-24 21:34 14.59025 -90.52771 4938 ft 5 kts 285°
2026-04-24 21:34 14.59039 -90.52818 4937 ft 8 kts 286°
2026-04-24 21:34 14.59045 -90.52839 4938 ft 0 kts 287°